START_TIME,STEP,MOV.,AL01,t_acc.,AL02,t_acc.,E37,t_acc.,H21,t_acc.
1980-11-14 03:00:22.860 ,4,0,0.,24.0,0.,24.0,0.,24.0,0.,24.0
1980-11-14 03:00:46.860 ,5,1,0.,24.0,0.,24.0,0.,24.0,0.,24.0
1980-11-14 03:01:10.860 ,5,0,0.,24.0,0.,24.0,0.,24.0,0.,24.0
1980-11-14 03:01:34.860 ,6,1,0.,24.0,0.,24.0,0.,24.0,0.,24.0
1980-11-14 03:01:58.860 ,6,0,0.,24.0,0.,24.0,0.,24.0,0.,24.0
1980-11-14 03:02:22.860 ,7,1,0.,24.0,0.,24.0,0.,24.0,0.,24.0
1980-11-14 03:02:46.860 ,7,0,7.,24.0,0.,24.0,0.,24.0,0.,24.0
1980-11-14 03:03:10.860 ,7,1,10.,24.0,0.,24.0,0.,24.0,0.,24.0
1980-11-14 03:03:34.860 ,7,0,13.,24.0,0.,24.0,0.,24.0,0.,24.0
1980-11-14 03:03:58.860 ,6,1,8.,24.0,0.,24.0,0.,24.0,0.,24.0
1980-11-14 03:04:22.860 ,0,0,0.,24.0,0.,24.0,0.,24.0,0.,24.0
1980-11-14 03:07:10.860 ,0,0,0.,24.0,0.,24.0,0.,24.0,0.,24.0
1980-11-14 03:07:34.860 ,0,0,0.,24.0,0.,24.0,0.,24.0,0.,24.0
1980-11-14 03:07:58.860 ,1,1,0.,24.0,0.,24.0,0.,24.0,0.,24.0
1980-11-14 03:08:22.860 ,1,0,0.,24.0,0.,24.0,0.,24.0,0.,24.0
1980-11-14 03:08:46.860 ,0,1,0.,24.0,0.,24.0,0.,24.0,0.,24.0
1980-11-14 03:09:10.860 ,0,0,0.,24.0,0.,24.0,0.,24.0,0.,24.0
1980-11-14 03:09:34.860 ,0,1,0.,24.0,0.,24.0,0.,24.0,0.,24.0
1980-11-14 03:09:58.860 ,0,0,0.,24.0,0.,24.0,0.,24.0,0.,24.0
1980-11-14 03:10:22.860 ,1,1,0.,24.0,0.,24.0,0.,24.0,0.,24.0
1980-11-14 03:10:46.860 ,1,0,0.,24.0,0.,24.0,0.,24.0,0.,24.0
1980-11-14 03:11:10.860 ,2,1,0.,24.0,0.,24.0,0.,24.0,0.,24.0
1980-11-14 03:11:34.860 ,2,0,0.,24.0,0.,24.0,0.,24.0,0.,24.0
1980-11-14 03:11:58.860 ,3,1,0.,24.0,0.,24.0,0.,24.0,0.,24.0
1980-11-14 03:12:22.860 ,3,0,0.,24.0,0.,24.0,0.,24.0,0.,24.0
1980-11-14 03:12:46.860 ,4,1,0.,24.0,0.,24.0,0.,24.0,0.,24.0
1980-11-14 03:13:10.860 ,4,0,0.,24.0,0.,24.0,0.,24.0,0.,24.0
1980-11-14 03:13:34.860 ,5,1,0.,24.0,0.,24.0,0.,24.0,0.,24.0
1980-11-14 03:13:58.860 ,5,0,0.,24.0,0.,24.0,0.,24.0,0.,24.0
1980-11-14 03:14:22.860 ,6,1,0.,24.0,0.,24.0,0.,24.0,0.,24.0
1980-11-14 03:14:46.860 ,6,0,0.,24.0,0.,24.0,0.,24.0,0.,24.0
1980-11-14 03:15:10.860 ,7,1,0.,24.0,0.,24.0,0.,24.0,0.,24.0
1980-11-14 03:15:34.860 ,7,0,14.,24.0,0.,24.0,0.,24.0,0.,24.0
1980-11-14 03:15:58.860 ,7,1,8.,24.0,0.,24.0,0.,24.0,0.,24.0
1980-11-14 03:16:22.860 ,7,0,12.,24.0,0.,24.0,0.,24.0,0.,24.0
1980-11-14 03:16:46.860 ,6,1,3.,24.0,0.,24.0,0.,24.0,0.,24.0
1980-11-14 03:17:10.860 ,6,0,0.,24.0,0.,24.0,0.,24.0,0.,24.0
1980-11-14 03:17:34.860 ,5,1,0.,24.0,0.,24.0,0.,24.0,0.,24.0
1980-11-14 03:17:58.860 ,5,0,0.,24.0,0.,24.0,0.,24.0,0.,24.0
1980-11-14 03:18:22.860 ,4,1,0.,24.0,0.,24.0,0.,24.0,0.,24.0
1980-11-14 03:18:46.860 ,4,0,0.,24.0,0.,24.0,0.,24.0,0.,24.0
1980-11-14 03:19:10.860 ,3,1,0.,24.0,0.,24.0,0.,24.0,0.,24.0
1980-11-14 03:19:34.860 ,3,0,0.,24.0,0.,24.0,0.,24.0,0.,24.0
1980-11-14 03:19:58.860 ,2,1,0.,24.0,0.,24.0,0.,24.0,0.,24.0
1980-11-14 03:20:22.860 ,2,0,0.,24.0,0.,24.0,0.,24.0,0.,24.0
1980-11-14 03:20:46.860 ,1,1,1.,24.0,0.,24.0,0.,24.0,0.,24.0
1980-11-14 03:21:10.860 ,1,0,0.,24.0,0.,24.0,0.,24.0,0.,24.0
1980-11-14 03:21:34.860 ,0,1,0.,24.0,0.,24.0,0.,24.0,0.,24.0
1980-11-14 03:21:58.860 ,0,0,0.,24.0,0.,24.0,0.,24.0,0.,24.0
1980-11-14 03:22:22.860 ,0,1,0.,24.0,0.,24.0,0.,24.0,0.,24.0
1980-11-14 03:22:46.860 ,0,0,0.,24.0,0.,24.0,0.,24.0,0.,24.0
1980-11-14 03:23:10.860 ,1,1,0.,24.0,0.,24.0,0.,24.0,0.,24.0
1980-11-14 03:23:34.860 ,1,0,0.,24.0,0.,24.0,0.,24.0,0.,24.0
1980-11-14 03:23:58.860 ,2,1,0.,24.0,0.,24.0,0.,24.0,0.,24.0
1980-11-14 03:24:22.860 ,2,0,0.,24.0,0.,24.0,0.,24.0,0.,24.0
1980-11-14 03:24:46.860 ,3,1,0.,24.0,0.,24.0,0.,24.0,0.,24.0
1980-11-14 03:25:10.860 ,3,0,0.,24.0,0.,24.0,0.,24.0,0.,24.0
1980-11-14 03:25:34.860 ,4,1,0.,24.0,0.,24.0,0.,24.0,0.,24.0
1980-11-14 03:25:58.860 ,4,0,0.,24.0,0.,24.0,0.,24.0,0.,24.0
1980-11-14 03:26:22.860 ,5,1,0.,24.0,0.,24.0,0.,24.0,0.,24.0
1980-11-14 03:26:46.860 ,5,0,0.,24.0,0.,24.0,0.,24.0,0.,24.0
1980-11-14 03:27:10.860 ,6,1,0.,24.0,0.,24.0,0.,24.0,0.,24.0
1980-11-14 03:27:34.860 ,6,0,0.,24.0,0.,24.0,0.,24.0,0.,24.0
1980-11-14 03:27:58.860 ,7,1,5.,24.0,0.,24.0,0.,24.0,0.,24.0
1980-11-14 03:28:22.860 ,0,0,11.,24.0,0.,24.0,0.,24.0,0.,24.0
1980-11-14 03:32:40.860 ,0,0,,0,,0,,0,,0
1980-11-14 03:32:46.860 ,2,1,0.,24.0,0.,24.0,0.,24.0,0.,24.0
1980-11-14 03:33:10.860 ,2,0,0.,24.0,0.,24.0,0.,24.0,0.,24.0
1980-11-14 03:33:34.860 ,1,1,0.,24.0,0.,24.0,0.,24.0,0.,24.0
1980-11-14 03:33:58.860 ,1,0,0.,24.0,0.,24.0,0.,24.0,0.,24.0
1980-11-14 03:34:22.860 ,0,1,0.,24.0,0.,24.0,0.,24.0,0.,24.0
1980-11-14 03:34:46.860 ,0,0,0.,24.0,0.,24.0,0.,24.0,0.,24.0
1980-11-14 03:35:10.860 ,0,1,0.,24.0,0.,24.0,0.,24.0,0.,24.0
1980-11-14 03:35:34.860 ,0,0,0.,24.0,0.,24.0,0.,24.0,0.,24.0
1980-11-14 03:35:58.860 ,1,1,0.,24.0,0.,24.0,0.,24.0,0.,24.0
1980-11-14 03:36:22.860 ,1,0,0.,24.0,0.,24.0,0.,24.0,0.,24.0
1980-11-14 03:36:46.860 ,2,1,1.,24.0,0.,24.0,0.,24.0,0.,24.0
1980-11-14 03:37:10.860 ,2,0,0.,24.0,0.,24.0,0.,24.0,0.,24.0
1980-11-14 03:37:34.860 ,3,1,1.,24.0,0.,24.0,0.,24.0,0.,24.0
1980-11-14 03:37:58.860 ,3,0,0.,24.0,0.,24.0,0.,24.0,0.,24.0
1980-11-14 03:38:22.860 ,4,1,0.,24.0,0.,24.0,0.,24.0,0.,24.0
1980-11-14 03:38:46.860 ,4,0,0.,24.0,0.,24.0,0.,24.0,0.,24.0
1980-11-14 03:39:10.860 ,5,1,0.,24.0,0.,24.0,0.,24.0,0.,24.0
1980-11-14 03:39:34.860 ,5,0,0.,24.0,0.,24.0,0.,24.0,0.,24.0
1980-11-14 03:39:58.860 ,6,1,0.,24.0,0.,24.0,0.,24.0,0.,24.0
1980-11-14 03:40:22.860 ,6,0,0.,24.0,0.,24.0,0.,24.0,0.,24.0
1980-11-14 03:40:46.860 ,7,1,,0,,0,,0,,0
1980-11-14 03:41:10.860 ,7,0,17.,24.0,0.,24.0,0.,24.0,0.,24.0
1980-11-14 03:41:34.860 ,7,1,9.,24.0,0.,24.0,0.,24.0,0.,24.0
1980-11-14 03:41:58.860 ,7,0,4.,24.0,0.,24.0,0.,24.0,0.,24.0
1980-11-14 03:42:22.860 ,6,1,8.,24.0,0.,24.0,0.,24.0,0.,24.0
1980-11-14 03:42:46.860 ,6,0,0.,24.0,0.,24.0,0.,24.0,0.,24.0
1980-11-14 03:43:10.860 ,5,1,0.,24.0,0.,24.0,0.,24.0,0.,24.0
1980-11-14 03:43:34.860 ,5,0,0.,24.0,0.,24.0,0.,24.0,0.,24.0
1980-11-14 03:43:58.860 ,4,1,0.,24.0,0.,24.0,0.,24.0,0.,24.0
1980-11-14 03:44:22.860 ,4,0,0.,24.0,0.,24.0,0.,24.0,0.,24.0
1980-11-14 03:44:46.860 ,3,1,0.,24.0,0.,24.0,0.,24.0,0.,24.0
1980-11-14 03:45:10.860 ,3,0,0.,24.0,0.,24.0,0.,24.0,0.,24.0
1980-11-14 03:45:34.860 ,2,1,0.,24.0,0.,24.0,0.,24.0,0.,24.0
1980-11-14 03:45:58.860 ,2,0,0.,24.0,0.,24.0,0.,24.0,0.,24.0
1980-11-14 03:46:22.860 ,1,1,0.,24.0,0.,24.0,0.,24.0,0.,24.0
1980-11-14 03:46:46.860 ,1,0,0.,24.0,0.,24.0,0.,24.0,0.,24.0
1980-11-14 03:47:10.860 ,0,1,0.,24.0,0.,24.0,0.,24.0,0.,24.0
1980-11-14 03:47:34.860 ,0,0,0.,24.0,0.,24.0,0.,24.0,0.,24.0
1980-11-14 03:47:58.860 ,0,1,0.,24.0,0.,24.0,0.,24.0,0.,24.0
1980-11-14 03:48:22.860 ,0,0,0.,24.0,0.,24.0,0.,24.0,0.,24.0
1980-11-14 03:48:46.860 ,1,1,0.,24.0,0.,24.0,0.,24.0,0.,24.0
1980-11-14 03:49:10.860 ,1,0,0.,24.0,0.,24.0,0.,24.0,0.,24.0
1980-11-14 03:49:34.860 ,2,1,0.,24.0,0.,24.0,0.,24.0,0.,24.0
1980-11-14 03:49:58.860 ,2,0,0.,24.0,0.,24.0,0.,24.0,0.,24.0
1980-11-14 03:50:22.860 ,3,1,0.,24.0,0.,24.0,0.,24.0,0.,24.0
1980-11-14 03:50:46.860 ,3,0,0.,24.0,0.,24.0,0.,24.0,0.,24.0
1980-11-14 03:51:10.860 ,4,1,0.,24.0,0.,24.0,0.,24.0,0.,24.0
1980-11-14 03:51:34.860 ,4,0,0.,24.0,0.,24.0,0.,24.0,0.,24.0
1980-11-14 03:51:58.860 ,5,1,0.,24.0,0.,24.0,0.,24.0,0.,24.0
1980-11-14 03:52:22.860 ,5,0,0.,24.0,0.,24.0,0.,24.0,0.,24.0
1980-11-14 03:52:46.860 ,6,1,1.,24.0,0.,24.0,0.,24.0,0.,24.0
1980-11-14 03:53:10.860 ,6,0,0.,24.0,0.,24.0,0.,24.0,0.,24.0
1980-11-14 03:53:34.860 ,7,1,4.,24.0,0.,24.0,0.,24.0,0.,24.0
1980-11-14 03:53:58.860 ,7,0,13.,24.0,0.,24.0,0.,24.0,0.,24.0
1980-11-14 03:54:22.860 ,7,1,7.,24.0,0.,24.0,0.,24.0,0.,24.0
1980-11-14 03:54:46.860 ,7,0,13.,24.0,0.,24.0,0.,24.0,0.,24.0
1980-11-14 03:55:10.860 ,6,1,4.,24.0,0.,24.0,0.,24.0,0.,24.0
1980-11-14 03:55:34.860 ,6,0,0.,24.0,0.,24.0,0.,24.0,0.,24.0
1980-11-14 03:55:58.860 ,5,1,0.,24.0,0.,24.0,0.,24.0,0.,24.0
1980-11-14 03:56:22.860 ,5,0,0.,24.0,0.,24.0,0.,24.0,0.,24.0
1980-11-14 03:56:46.860 ,4,1,0.,24.0,0.,24.0,0.,24.0,0.,24.0
1980-11-14 03:57:10.860 ,4,0,0.,24.0,0.,24.0,0.,24.0,0.,24.0
1980-11-14 03:57:34.860 ,3,1,0.,24.0,0.,24.0,0.,24.0,0.,24.0
1980-11-14 03:57:58.860 ,3,0,0.,24.0,0.,24.0,0.,24.0,0.,24.0
1980-11-14 03:58:22.860 ,2,1,0.,24.0,0.,24.0,0.,24.0,0.,24.0
1980-11-14 03:58:46.860 ,2,0,1.,24.0,0.,24.0,0.,24.0,0.,24.0
1980-11-14 03:59:10.860 ,1,1,0.,24.0,0.,24.0,0.,24.0,0.,24.0
1980-11-14 03:59:34.860 ,1,0,0.,24.0,0.,24.0,0.,24.0,0.,24.0
1980-11-14 03:59:58.860 ,0,1,0.,24.0,0.,24.0,0.,24.0,0.,24.0
1980-11-14 04:00:22.860 ,0,0,0.,24.0,0.,24.0,0.,24.0,0.,24.0
1980-11-14 04:00:46.860 ,0,1,0.,24.0,0.,24.0,0.,24.0,0.,24.0
1980-11-14 04:01:10.860 ,0,0,0.,24.0,0.,24.0,0.,24.0,0.,24.0
1980-11-14 04:01:34.860 ,1,1,0.,24.0,0.,24.0,0.,24.0,0.,24.0
1980-11-14 04:01:58.860 ,1,0,0.,24.0,0.,24.0,0.,24.0,0.,24.0
1980-11-14 04:02:22.860 ,2,1,0.,24.0,0.,24.0,0.,24.0,0.,24.0
1980-11-14 04:02:46.860 ,2,0,0.,24.0,0.,24.0,0.,24.0,0.,24.0
1980-11-14 04:03:10.860 ,3,1,0.,24.0,0.,24.0,0.,24.0,0.,24.0
1980-11-14 04:03:34.860 ,3,0,0.,24.0,0.,24.0,0.,24.0,0.,24.0
1980-11-14 04:03:58.860 ,4,1,0.,24.0,0.,24.0,0.,24.0,0.,24.0
1980-11-14 04:04:22.860 ,4,0,0.,24.0,0.,24.0,0.,24.0,0.,24.0
1980-11-14 04:04:46.860 ,5,1,0.,24.0,0.,24.0,0.,24.0,0.,24.0
1980-11-14 04:05:10.860 ,5,0,0.,24.0,0.,24.0,0.,24.0,0.,24.0
1980-11-14 04:05:34.860 ,6,1,0.,24.0,0.,24.0,0.,24.0,0.,24.0
1980-11-14 04:05:58.860 ,6,0,0.,24.0,0.,24.0,0.,24.0,0.,24.0
1980-11-14 04:06:22.860 ,7,1,0.,24.0,0.,24.0,0.,24.0,0.,24.0
1980-11-14 04:06:46.860 ,7,0,12.,24.0,0.,24.0,0.,24.0,0.,24.0
1980-11-14 04:07:10.860 ,7,1,12.,24.0,0.,24.0,0.,24.0,0.,24.0
1980-11-14 04:07:34.860 ,7,0,8.,24.0,0.,24.0,0.,24.0,0.,24.0
1980-11-14 04:07:58.860 ,6,1,6.,24.0,0.,24.0,0.,24.0,0.,24.0
1980-11-14 04:08:22.860 ,6,0,0.,24.0,0.,24.0,0.,24.0,0.,24.0
1980-11-14 04:08:46.860 ,5,1,0.,24.0,0.,24.0,0.,24.0,0.,24.0
1980-11-14 04:09:10.860 ,5,0,0.,24.0,0.,24.0,0.,24.0,0.,24.0
1980-11-14 04:09:34.860 ,4,1,0.,24.0,0.,24.0,0.,24.0,0.,24.0
1980-11-14 04:09:58.860 ,4,0,0.,24.0,0.,24.0,0.,24.0,0.,24.0
1980-11-14 04:10:22.860 ,3,1,0.,24.0,0.,24.0,0.,24.0,0.,24.0
1980-11-14 04:10:46.860 ,3,0,0.,24.0,0.,24.0,0.,24.0,0.,24.0
1980-11-14 04:11:10.860 ,2,1,0.,24.0,0.,24.0,0.,24.0,0.,24.0
1980-11-14 04:11:34.860 ,2,0,0.,24.0,0.,24.0,0.,24.0,0.,24.0
1980-11-14 04:11:58.860 ,1,1,0.,24.0,0.,24.0,0.,24.0,0.,24.0
1980-11-14 04:12:22.860 ,1,0,0.,24.0,0.,24.0,0.,24.0,0.,24.0
1980-11-14 04:12:46.860 ,0,1,0.,24.0,0.,24.0,0.,24.0,0.,24.0
1980-11-14 04:13:10.860 ,0,0,0.,24.0,0.,24.0,0.,24.0,0.,24.0
1980-11-14 04:13:34.860 ,0,1,0.,24.0,0.,24.0,0.,24.0,0.,24.0
1980-11-14 04:13:58.860 ,0,0,0.,24.0,0.,24.0,0.,24.0,0.,24.0
1980-11-14 04:14:22.860 ,1,1,0.,24.0,0.,24.0,0.,24.0,0.,24.0
1980-11-14 04:14:46.860 ,1,0,0.,24.0,0.,24.0,0.,24.0,0.,24.0
1980-11-14 04:15:10.860 ,2,1,0.,24.0,0.,24.0,0.,24.0,0.,24.0
1980-11-14 04:15:34.860 ,2,0,0.,24.0,0.,24.0,0.,24.0,0.,24.0
1980-11-14 04:15:58.860 ,3,1,0.,24.0,0.,24.0,0.,24.0,0.,24.0
1980-11-14 04:16:22.860 ,3,0,0.,24.0,0.,24.0,0.,24.0,0.,24.0
1980-11-14 04:16:46.860 ,4,1,0.,24.0,0.,24.0,0.,24.0,0.,24.0
1980-11-14 04:17:10.860 ,4,0,0.,24.0,0.,24.0,0.,24.0,0.,24.0
1980-11-14 04:17:34.860 ,5,1,0.,24.0,0.,24.0,0.,24.0,0.,24.0
1980-11-14 04:17:58.860 ,5,0,0.,24.0,0.,24.0,0.,24.0,0.,24.0
1980-11-14 04:18:22.860 ,6,1,0.,24.0,0.,24.0,0.,24.0,0.,24.0
1980-11-14 04:18:46.860 ,6,0,0.,24.0,0.,24.0,0.,24.0,0.,24.0
1980-11-14 04:19:10.860 ,7,1,1.,24.0,0.,24.0,0.,24.0,0.,24.0
1980-11-14 04:19:34.860 ,7,0,9.,24.0,0.,24.0,0.,24.0,0.,24.0
1980-11-14 04:19:58.860 ,7,1,11.,24.0,0.,24.0,0.,24.0,0.,24.0
1980-11-14 04:20:22.860 ,7,0,11.,24.0,0.,24.0,0.,24.0,0.,24.0
1980-11-14 04:20:46.860 ,6,1,7.,24.0,0.,24.0,0.,24.0,0.,24.0
1980-11-14 04:21:10.860 ,0,0,0.,24.0,0.,24.0,0.,24.0,0.,24.0
1980-11-14 04:21:58.260 ,0,0,,0,,0,,0,,0
1980-11-14 04:21:58.860 ,0,0,0.,24.0,0.,24.0,0.,24.0,0.,24.0
1980-11-14 04:22:22.860 ,4,1,0.,24.0,0.,24.0,0.,24.0,0.,24.0
1980-11-14 04:22:46.860 ,4,0,0.,24.0,0.,24.0,0.,24.0,0.,24.0
1980-11-14 04:23:10.860 ,3,1,0.,24.0,0.,24.0,0.,24.0,0.,24.0
1980-11-14 04:23:34.860 ,3,0,0.,24.0,0.,24.0,0.,24.0,0.,24.0
1980-11-14 04:23:58.860 ,2,1,0.,24.0,0.,24.0,0.,24.0,0.,24.0
1980-11-14 04:24:22.860 ,2,0,0.,24.0,0.,24.0,0.,24.0,0.,24.0
1980-11-14 04:24:46.860 ,1,1,0.,24.0,0.,24.0,0.,24.0,0.,24.0
1980-11-14 04:25:10.860 ,1,0,0.,24.0,0.,24.0,0.,24.0,0.,24.0
1980-11-14 04:25:34.860 ,0,1,0.,24.0,0.,24.0,0.,24.0,0.,24.0
1980-11-14 04:25:58.860 ,0,0,0.,24.0,0.,24.0,0.,24.0,0.,24.0
1980-11-14 04:26:22.860 ,0,1,0.,24.0,0.,24.0,0.,24.0,0.,24.0
1980-11-14 04:26:46.860 ,0,0,0.,24.0,0.,24.0,0.,24.0,0.,24.0
1980-11-14 04:27:10.860 ,1,1,0.,24.0,0.,24.0,1.,24.0,0.,24.0
1980-11-14 04:27:34.860 ,1,0,0.,24.0,0.,24.0,1.,24.0,0.,24.0
1980-11-14 04:27:58.860 ,2,1,0.,24.0,0.,24.0,2.,24.0,0.,24.0
1980-11-14 04:28:22.860 ,2,0,0.,24.0,0.,24.0,0.,24.0,0.,24.0
1980-11-14 04:28:46.860 ,3,1,0.,24.0,0.,24.0,1.,24.0,0.,24.0
1980-11-14 04:29:10.860 ,3,0,0.,24.0,0.,24.0,1.,24.0,0.,24.0
1980-11-14 04:29:34.860 ,4,1,0.,24.0,0.,24.0,0.,24.0,0.,24.0
1980-11-14 04:29:58.860 ,4,0,0.,24.0,0.,24.0,1.,24.0,0.,24.0
1980-11-14 04:30:22.860 ,5,1,0.,24.0,0.,24.0,1.,24.0,0.,24.0
1980-11-14 04:30:46.860 ,5,0,0.,24.0,0.,24.0,0.,24.0,0.,24.0
1980-11-14 04:31:10.860 ,6,1,0.,24.0,0.,24.0,0.,24.0,0.,24.0
1980-11-14 04:31:34.860 ,6,0,0.,24.0,0.,24.0,0.,24.0,0.,24.0
1980-11-14 04:31:58.860 ,7,1,5.,24.0,0.,24.0,3.,24.0,0.,24.0
1980-11-14 04:32:22.860 ,7,0,12.,24.0,0.,24.0,0.,24.0,0.,24.0
1980-11-14 04:32:46.860 ,7,1,8.,24.0,0.,24.0,0.,24.0,0.,24.0
1980-11-14 04:33:10.860 ,7,0,13.,24.0,0.,24.0,0.,24.0,0.,24.0
1980-11-14 04:33:34.860 ,6,1,2.,24.0,0.,24.0,0.,24.0,0.,24.0
1980-11-14 04:33:58.860 ,6,0,0.,24.0,0.,24.0,0.,24.0,0.,24.0
1980-11-14 04:34:22.860 ,5,1,0.,24.0,0.,24.0,0.,24.0,0.,24.0
1980-11-14 04:34:46.860 ,5,0,0.,24.0,0.,24.0,2.,24.0,0.,24.0
1980-11-14 04:35:10.860 ,4,1,0.,24.0,0.,24.0,0.,24.0,0.,24.0
1980-11-14 04:35:34.860 ,4,0,0.,24.0,0.,24.0,0.,24.0,0.,24.0
1980-11-14 04:35:58.860 ,3,1,0.,24.0,0.,24.0,1.,24.0,0.,24.0
1980-11-14 04:36:22.860 ,3,0,0.,24.0,0.,24.0,0.,24.0,0.,24.0
1980-11-14 04:36:46.860 ,2,1,0.,24.0,0.,24.0,0.,24.0,0.,24.0
1980-11-14 04:37:10.860 ,2,0,0.,24.0,0.,24.0,3.,24.0,0.,24.0
1980-11-14 04:37:34.860 ,1,1,0.,24.0,0.,24.0,0.,24.0,0.,24.0
1980-11-14 04:37:58.860 ,1,0,0.,24.0,0.,24.0,2.,24.0,0.,24.0
1980-11-14 04:38:22.860 ,0,1,0.,24.0,0.,24.0,2.,24.0,0.,24.0
1980-11-14 04:38:46.860 ,0,0,0.,24.0,0.,24.0,2.,24.0,0.,24.0
1980-11-14 04:39:10.860 ,0,1,0.,24.0,1.,24.0,1.,24.0,0.,24.0
1980-11-14 04:39:34.860 ,0,0,0.,24.0,0.,24.0,0.,24.0,0.,24.0
1980-11-14 04:39:58.860 ,1,1,0.,24.0,0.,24.0,1.,24.0,0.,24.0
1980-11-14 04:40:22.860 ,1,0,0.,24.0,0.,24.0,1.,24.0,0.,24.0
1980-11-14 04:40:46.860 ,2,1,0.,24.0,0.,24.0,0.,24.0,0.,24.0
1980-11-14 04:41:10.860 ,2,0,0.,24.0,0.,24.0,0.,24.0,0.,24.0
1980-11-14 04:41:34.860 ,3,1,0.,24.0,0.,24.0,0.,24.0,0.,24.0
1980-11-14 04:41:58.860 ,3,0,0.,24.0,0.,24.0,2.,24.0,0.,24.0
1980-11-14 04:42:22.860 ,4,1,0.,24.0,0.,24.0,0.,24.0,0.,24.0
1980-11-14 04:42:46.860 ,4,0,0.,24.0,0.,24.0,1.,24.0,0.,24.0
1980-11-14 04:43:10.860 ,5,1,0.,24.0,0.,24.0,0.,24.0,0.,24.0
1980-11-14 04:43:34.860 ,5,0,0.,24.0,0.,24.0,1.,24.0,0.,24.0
1980-11-14 04:43:58.860 ,6,1,0.,24.0,0.,24.0,1.,24.0,0.,24.0
1980-11-14 04:44:22.860 ,6,0,0.,24.0,0.,24.0,1.,24.0,0.,24.0
1980-11-14 04:44:46.860 ,7,1,2.,24.0,0.,24.0,1.,24.0,0.,24.0
1980-11-14 04:45:10.860 ,7,0,10.,24.0,0.,24.0,0.,24.0,0.,24.0
1980-11-14 04:45:34.860 ,7,1,15.,24.0,0.,24.0,0.,24.0,0.,24.0
1980-11-14 04:45:58.860 ,7,0,4.,24.0,0.,24.0,1.,24.0,0.,24.0
1980-11-14 04:46:22.860 ,6,1,8.,24.0,0.,24.0,1.,24.0,0.,24.0
1980-11-14 04:46:46.860 ,6,0,0.,24.0,0.,24.0,0.,24.0,0.,24.0
1980-11-14 04:47:10.860 ,5,1,0.,24.0,0.,24.0,0.,24.0,0.,24.0
1980-11-14 04:47:34.860 ,5,0,0.,24.0,1.,24.0,0.,24.0,0.,24.0
1980-11-14 04:47:58.860 ,4,1,0.,24.0,0.,24.0,0.,24.0,0.,24.0
1980-11-14 04:48:22.860 ,4,0,0.,24.0,0.,24.0,0.,24.0,0.,24.0
1980-11-14 04:48:46.860 ,3,1,0.,24.0,0.,24.0,1.,24.0,0.,24.0
1980-11-14 04:49:10.860 ,3,0,0.,24.0,0.,24.0,1.,24.0,0.,24.0
1980-11-14 04:49:34.860 ,2,1,0.,24.0,0.,24.0,0.,24.0,0.,24.0
1980-11-14 04:49:58.860 ,2,0,0.,24.0,0.,24.0,0.,24.0,0.,24.0
1980-11-14 04:50:22.860 ,1,1,0.,24.0,0.,24.0,1.,24.0,0.,24.0
1980-11-14 04:50:46.860 ,1,0,0.,24.0,0.,24.0,0.,24.0,0.,24.0
1980-11-14 04:51:10.860 ,0,1,0.,24.0,0.,24.0,1.,24.0,0.,24.0
1980-11-14 04:51:34.860 ,0,0,0.,24.0,0.,24.0,0.,24.0,0.,24.0
1980-11-14 04:51:58.860 ,0,1,0.,24.0,0.,24.0,1.,24.0,0.,24.0
1980-11-14 04:52:22.860 ,0,0,0.,24.0,0.,24.0,0.,24.0,0.,24.0
1980-11-14 04:52:46.860 ,1,1,0.,24.0,0.,24.0,0.,24.0,0.,24.0
1980-11-14 04:53:10.860 ,1,0,0.,24.0,0.,24.0,0.,24.0,0.,24.0
1980-11-14 04:53:34.860 ,2,1,0.,24.0,0.,24.0,1.,24.0,0.,24.0
1980-11-14 04:53:58.860 ,2,0,0.,24.0,0.,24.0,0.,24.0,0.,24.0
1980-11-14 04:54:22.860 ,3,1,0.,24.0,0.,24.0,0.,24.0,0.,24.0
1980-11-14 04:54:46.860 ,3,0,0.,24.0,0.,24.0,2.,24.0,0.,24.0
1980-11-14 04:55:10.860 ,4,1,0.,24.0,0.,24.0,0.,24.0,0.,24.0
1980-11-14 04:55:34.860 ,4,0,0.,24.0,0.,24.0,1.,24.0,0.,24.0
1980-11-14 04:55:58.860 ,5,1,0.,24.0,0.,24.0,2.,24.0,0.,24.0
1980-11-14 04:56:22.860 ,5,0,0.,24.0,0.,24.0,0.,24.0,0.,24.0
1980-11-14 04:56:46.860 ,6,1,0.,24.0,0.,24.0,1.,24.0,0.,24.0
1980-11-14 04:57:10.860 ,6,0,0.,24.0,0.,24.0,0.,24.0,0.,24.0
1980-11-14 04:57:34.860 ,7,1,2.,24.0,0.,24.0,1.,24.0,0.,24.0
1980-11-14 04:57:58.860 ,7,0,5.,24.0,0.,24.0,2.,24.0,0.,24.0
1980-11-14 04:58:22.860 ,7,1,12.,24.0,0.,24.0,0.,24.0,0.,24.0
1980-11-14 04:58:46.860 ,7,0,7.,24.0,0.,24.0,0.,24.0,0.,24.0
1980-11-14 04:59:10.860 ,6,1,6.,24.0,0.,24.0,0.,24.0,0.,24.0
1980-11-14 04:59:34.860 ,6,0,0.,24.0,0.,24.0,1.,24.0,0.,24.0
1980-11-14 04:59:58.860 ,5,1,0.,24.0,0.,24.0,1.,24.0,0.,24.0
1980-11-14 05:00:22.870 ,5,0,0.,24.0,0.,24.0,0.,24.0,0.,24.0
1980-11-14 05:00:46.870 ,4,1,0.,24.0,0.,24.0,1.,24.0,0.,24.0
1980-11-14 05:01:10.870 ,4,0,0.,24.0,0.,24.0,0.,24.0,0.,24.0
1980-11-14 05:01:34.870 ,3,1,0.,24.0,0.,24.0,0.,24.0,0.,24.0
1980-11-14 05:01:58.870 ,3,0,0.,24.0,0.,24.0,0.,24.0,0.,24.0
1980-11-14 05:02:22.870 ,2,1,0.,24.0,0.,24.0,2.,24.0,0.,24.0
1980-11-14 05:02:46.870 ,2,0,0.,24.0,0.,24.0,2.,24.0,0.,24.0
1980-11-14 05:03:10.870 ,1,1,0.,24.0,0.,24.0,0.,24.0,0.,24.0
1980-11-14 05:03:34.870 ,1,0,0.,24.0,0.,24.0,3.,24.0,0.,24.0
1980-11-14 05:03:58.870 ,0,1,0.,24.0,0.,24.0,2.,24.0,0.,24.0
1980-11-14 05:04:22.870 ,0,0,0.,24.0,0.,24.0,1.,24.0,0.,24.0
1980-11-14 05:04:46.870 ,0,1,0.,24.0,0.,24.0,1.,24.0,0.,24.0
1980-11-14 05:05:10.860 ,0,0,0.,24.0,0.,24.0,1.,24.0,0.,24.0
1980-11-14 05:05:34.870 ,1,1,0.,24.0,0.,24.0,1.,24.0,0.,24.0
1980-11-14 05:05:58.870 ,1,0,0.,24.0,0.,24.0,1.,24.0,0.,24.0
1980-11-14 05:06:22.870 ,2,1,1.,24.0,0.,24.0,0.,24.0,0.,24.0
1980-11-14 05:06:46.870 ,2,0,0.,24.0,0.,24.0,1.,24.0,0.,24.0
1980-11-14 05:07:10.860 ,3,1,0.,24.0,0.,24.0,0.,24.0,0.,24.0
1980-11-14 05:07:34.870 ,3,0,0.,24.0,0.,24.0,0.,24.0,0.,24.0
1980-11-14 05:07:58.870 ,4,1,0.,24.0,0.,24.0,0.,24.0,0.,24.0
1980-11-14 05:08:22.870 ,4,0,0.,24.0,0.,24.0,0.,24.0,0.,24.0
1980-11-14 05:08:46.860 ,5,1,0.,24.0,0.,24.0,1.,24.0,0.,24.0
1980-11-14 05:09:10.860 ,5,0,0.,24.0,0.,24.0,1.,24.0,0.,24.0
1980-11-14 05:09:34.860 ,6,1,0.,24.0,0.,24.0,0.,24.0,0.,24.0
1980-11-14 05:09:58.860 ,6,0,0.,24.0,0.,24.0,1.,24.0,0.,24.0
1980-11-14 05:10:22.860 ,7,1,0.,24.0,0.,24.0,0.,24.0,0.,24.0
1980-11-14 05:10:46.860 ,7,0,7.,24.0,0.,24.0,1.,24.0,0.,24.0
1980-11-14 05:11:10.860 ,7,1,6.,24.0,0.,24.0,1.,24.0,0.,24.0
1980-11-14 05:11:34.860 ,7,0,12.,24.0,0.,24.0,1.,24.0,0.,24.0
1980-11-14 05:11:58.860 ,6,1,9.,24.0,0.,24.0,0.,24.0,0.,24.0
1980-11-14 05:12:22.860 ,6,0,0.,24.0,0.,24.0,1.,24.0,0.,24.0
1980-11-14 05:12:46.860 ,5,1,0.,24.0,0.,24.0,0.,24.0,0.,24.0
1980-11-14 05:13:10.860 ,5,0,0.,24.0,0.,24.0,0.,24.0,0.,24.0
1980-11-14 05:13:34.860 ,4,1,0.,24.0,0.,24.0,0.,24.0,0.,24.0
1980-11-14 05:13:58.860 ,4,0,0.,24.0,0.,24.0,1.,24.0,0.,24.0
1980-11-14 05:14:22.860 ,3,1,0.,24.0,0.,24.0,1.,24.0,0.,24.0
1980-11-14 05:14:46.860 ,3,0,0.,24.0,0.,24.0,0.,24.0,0.,24.0
1980-11-14 05:15:10.860 ,2,1,0.,24.0,0.,24.0,1.,24.0,0.,24.0
1980-11-14 05:15:34.860 ,2,0,0.,24.0,0.,24.0,1.,24.0,0.,24.0
1980-11-14 05:15:58.860 ,1,1,0.,24.0,0.,24.0,0.,24.0,0.,24.0
1980-11-14 05:16:22.860 ,1,0,0.,24.0,0.,24.0,1.,24.0,0.,24.0
1980-11-14 05:16:46.860 ,0,1,0.,24.0,0.,24.0,1.,24.0,0.,24.0
1980-11-14 05:17:10.860 ,0,0,0.,24.0,0.,24.0,1.,24.0,0.,24.0
1980-11-14 05:17:34.860 ,0,1,0.,24.0,0.,24.0,0.,24.0,0.,24.0
1980-11-14 05:17:58.860 ,0,0,0.,24.0,0.,24.0,0.,24.0,0.,24.0
1980-11-14 05:18:22.860 ,1,1,0.,24.0,0.,24.0,2.,24.0,0.,24.0
1980-11-14 05:18:46.860 ,1,0,0.,24.0,0.,24.0,1.,24.0,0.,24.0
1980-11-14 05:19:10.860 ,2,1,0.,24.0,0.,24.0,1.,24.0,0.,24.0
1980-11-14 05:19:34.860 ,2,0,0.,24.0,0.,24.0,0.,24.0,0.,24.0
1980-11-14 05:19:58.860 ,3,1,0.,24.0,0.,24.0,1.,24.0,0.,24.0
1980-11-14 05:20:22.860 ,3,0,0.,24.0,0.,24.0,0.,24.0,0.,24.0
1980-11-14 05:20:46.860 ,4,1,0.,24.0,0.,24.0,0.,24.0,0.,24.0
1980-11-14 05:21:10.860 ,4,0,0.,24.0,0.,24.0,0.,24.0,0.,24.0
1980-11-14 05:21:34.860 ,5,1,0.,24.0,0.,24.0,0.,24.0,0.,24.0
1980-11-14 05:21:58.860 ,5,0,0.,24.0,0.,24.0,0.,24.0,0.,24.0
1980-11-14 05:22:22.860 ,6,1,0.,24.0,0.,24.0,0.,24.0,0.,24.0
1980-11-14 05:22:46.860 ,6,0,0.,24.0,0.,24.0,0.,24.0,0.,24.0
1980-11-14 05:23:58.860 ,0,0,7.,24.0,0.,24.0,1.,24.0,0.,24.0
1980-11-14 05:24:22.860 ,0,0,14.,24.0,0.,24.0,0.,24.0,0.,24.0
1980-11-14 05:24:46.860 ,6,1,8.,24.0,0.,24.0,0.,24.0,0.,24.0
1980-11-14 05:25:10.860 ,6,0,0.,24.0,0.,24.0,1.,24.0,0.,24.0
1980-11-14 05:25:34.860 ,5,1,0.,24.0,0.,24.0,0.,24.0,0.,24.0
1980-11-14 05:25:58.860 ,5,0,1.,24.0,0.,24.0,0.,24.0,0.,24.0
1980-11-14 05:26:22.860 ,4,1,0.,24.0,0.,24.0,0.,24.0,0.,24.0
1980-11-14 05:26:46.860 ,4,0,0.,24.0,0.,24.0,0.,24.0,0.,24.0
1980-11-14 05:27:10.860 ,3,1,0.,24.0,0.,24.0,1.,24.0,0.,24.0
1980-11-14 05:27:34.860 ,3,0,0.,24.0,0.,24.0,1.,24.0,0.,24.0
1980-11-14 05:27:58.860 ,2,1,0.,24.0,0.,24.0,0.,24.0,0.,24.0
1980-11-14 05:28:22.860 ,2,0,0.,24.0,0.,24.0,0.,24.0,0.,24.0
1980-11-14 05:28:46.860 ,1,1,0.,24.0,0.,24.0,2.,24.0,0.,24.0
1980-11-14 05:29:10.860 ,1,0,0.,24.0,0.,24.0,0.,24.0,0.,24.0
1980-11-14 05:29:34.860 ,0,1,0.,24.0,0.,24.0,0.,24.0,0.,24.0
1980-11-14 05:29:58.860 ,0,0,0.,24.0,0.,24.0,0.,24.0,0.,24.0
1980-11-14 05:30:22.860 ,0,1,0.,24.0,0.,24.0,0.,24.0,0.,24.0
1980-11-14 05:30:46.860 ,0,0,0.,24.0,0.,24.0,3.,24.0,0.,24.0
1980-11-14 05:31:10.860 ,1,1,0.,24.0,0.,24.0,0.,24.0,0.,24.0
1980-11-14 05:31:34.860 ,1,0,0.,24.0,0.,24.0,0.,24.0,0.,24.0
1980-11-14 05:31:58.860 ,2,1,0.,24.0,0.,24.0,0.,24.0,0.,24.0
1980-11-14 05:32:22.860 ,2,0,0.,24.0,0.,24.0,1.,24.0,0.,24.0
1980-11-14 05:32:46.860 ,3,1,0.,24.0,0.,24.0,1.,24.0,0.,24.0
1980-11-14 05:33:10.860 ,3,0,0.,24.0,0.,24.0,1.,24.0,0.,24.0
1980-11-14 05:33:34.860 ,4,1,1.,24.0,0.,24.0,1.,24.0,0.,24.0
1980-11-14 05:33:58.860 ,4,0,0.,24.0,0.,24.0,1.,24.0,0.,24.0
1980-11-14 05:34:22.860 ,5,1,0.,24.0,0.,24.0,1.,24.0,0.,24.0
1980-11-14 05:34:46.860 ,5,0,0.,24.0,0.,24.0,0.,24.0,0.,24.0
1980-11-14 05:35:10.860 ,6,1,0.,24.0,0.,24.0,1.,24.0,0.,24.0
1980-11-14 05:35:34.860 ,6,0,0.,24.0,0.,24.0,1.,24.0,0.,24.0
1980-11-14 05:35:58.860 ,7,1,1.,24.0,0.,24.0,0.,24.0,0.,24.0
1980-11-14 05:36:22.860 ,7,0,12.,24.0,0.,24.0,2.,24.0,0.,24.0
1980-11-14 05:36:46.860 ,7,1,14.,24.0,0.,24.0,0.,24.0,0.,24.0
1980-11-14 05:37:10.860 ,7,0,9.,24.0,0.,24.0,0.,24.0,0.,24.0
1980-11-14 05:37:34.860 ,6,1,8.,24.0,0.,24.0,0.,24.0,0.,24.0
1980-11-14 05:37:58.860 ,6,0,0.,24.0,0.,24.0,2.,24.0,0.,24.0
1980-11-14 05:38:22.860 ,5,1,0.,24.0,0.,24.0,0.,24.0,0.,24.0
1980-11-14 05:38:46.860 ,5,0,0.,24.0,0.,24.0,1.,24.0,0.,24.0
1980-11-14 05:39:10.860 ,4,1,0.,24.0,0.,24.0,0.,24.0,0.,24.0
1980-11-14 05:39:34.860 ,4,0,0.,24.0,0.,24.0,1.,24.0,0.,24.0
1980-11-14 05:39:58.860 ,3,1,0.,24.0,0.,24.0,1.,24.0,0.,24.0
1980-11-14 05:40:22.860 ,3,0,0.,24.0,0.,24.0,2.,24.0,0.,24.0
1980-11-14 05:40:46.860 ,2,1,1.,24.0,0.,24.0,0.,24.0,0.,24.0
1980-11-14 05:41:10.860 ,0,0,0.,24.0,0.,24.0,0.,24.0,0.,24.0